Location: ?
(35.3544°N, 139.4507°E)
Time: 11:51:48
(UTC+00:00)

Cosmos 1908 - Pass Details

Date: 03 August 2024
Orbit: 456 x 470 km, 82.5° (Epoch: 11 September)

Event Time Altitude Azimuth Distance (km) Brightness Sun altitude
Exits shadow 17:48:31 76° 13° (NNE) 501 3.1 -22.3°
Drops below altitude 10° 17:51:54 10° 7° (N) 1,665 6.4 -21.8°
Sets 17:54:00 0° 7° (N) 2,548 7.5 -21.5°
